Regional Weather Roundup
Issued by NWS Jackson, KY

Home | Current Version | Previous Version | Text Only | Print | Product List | Glossary On
Versions: 1 2 3 4 5 6 7 8 9 10 11 12 13 14 15 16 17 18 19 20 21 22 23 24 25 26 27 28 29 30 31 32 33 34 35 36 37 38 39 40 41 42 43 44 45 46 47 48 49 50
000
ASUS43 KJKL 250010
RWRJKL

EAST KENTUCKY HOURLY WEATHER ROUNDUP
NATIONAL WEATHER SERVICE JACKSON KY
800 PM EDT SUN MAY 24 2015

NOTE: "FAIR" INDICATES FEW OR NO CLOUDS BELOW 12,000 FEET WITH
NO SIGNIFICANT WEATHER AND/OR OBSTRUCTIONS TO VISIBILITY.

* THESE REPORTS ARE NOT UNDER NWS QUALITY CONTROL AND MAY NOT
  REPORT WEATHER SUCH AS PRECIPITATION AND FOG.

KYZ079-080-083-085-087-088-110-112-115-119-120-250100
...EASTERN KENTUCKY...

CITY           SKY/WX    TMP DP  RH WIND       PRES   REMARKS
JACKSON        CLEAR     78  49  35 CALM      30.20S
6HR MIN TEMP:  78; 6HR MAX TEMP:  84;

LONDON         CLEAR     80  47  31 S8        30.19S
6HR MIN TEMP:  80; 6HR MAX TEMP:  84;

SOMERSET*      CLEAR     77  52  41 S5        30.18S
MONTICELLO*    CLEAR     78  58  50 S10       30.20R
6HR MIN TEMP:  78; 6HR MAX TEMP:  83;

MIDDLESBORO*   CLEAR     78  55  45 CALM      30.21S
6HR MIN TEMP:  78; 6HR MAX TEMP:  83;

HARLAN APT*    CLEAR     79  45  29 CALM      30.22S
HAZARD APT*    CLEAR     79  48  34 S3        30.20S
BLACK MTN*       N/A     64  48  55 CALM        N/A
PIKEVILLE APT* CLEAR     79  50  36 SE5       30.21S
BIG SANDY*     CLEAR     80  52  37 SE5       30.19S
6HR MIN TEMP:  80; 6HR MAX TEMP:  84;

MOREHEAD APT*  CLEAR     79  54  41 VRB5      30.18F
$$

KYZ035-036-041-042-044-050-067-078-099-250100
...CENTRAL KENTUCKY...

CITY           SKY/WX    TMP DP  RH WIND       PRES   REMARKS
MT STERLING*   CLEAR     79  52  38 S5        30.17F
FLEMING/MASON* CLEAR     77  57  50 SE6       30.16F
DANVILLE*      CLEAR     79  54  41 S7        30.17R
RICHMOND*      CLEAR     79  48  34 S7        30.16S
LEXINGTON      CLEAR     79  53  40 S9        30.15S
6HR MIN TEMP:  79; 6HR MAX TEMP:  84;

FRANKFORT      PTCLDY    80  53  39 SE10      30.12S
6HR MIN TEMP:  80; 6HR MAX TEMP:  84;

$$

KYZ091>093-OHZ055-061-077-WVZ005-015-034-035-042-250100
...SOUTHERN OHIO/WEST VIRGINIA...

CITY           SKY/WX    TMP DP  RH WIND       PRES   REMARKS
COVINGTON      PTCLDY    78  53  41 S13       30.12S
COLUMBUS       PTCLDY    80  52  37 S9        30.14F
DAYTON         MOCLDY    80  51  36 S13       30.12F
WILMINGTON     CLEAR     79  47  32 S12       30.13F
HUNTINGTON     CLEAR     79  55  43 CALM      30.16F
CHARLESTON     PTCLDY    81  58  45 CALM      30.18F
PINEVILLE*     CLEAR     70  57  63 MISG      30.28S
BECKLEY        CLEAR     73  48  41 SE13      30.28F
BLUEFIELD      CLEAR     73  48  41 S10G16    30.32S
$$

VAZ002-007-008-TNZ017-027-036-066-071-250100
...SOUTHWEST VIRGINIA/EAST TENNESSEE...

CITY           SKY/WX    TMP DP  RH WIND       PRES   REMARKS
WISE*          CLEAR     73  43  33 S5        30.29S
JONESVILLE*    CLEAR     79  52  38 SE3       30.24R
ABINGDON*      CLEAR     76  49  39 S9        30.27S
BRISTOL        PTCLDY    78  51  38 SE9       30.23S
KNOXVILLE      PTCLDY    80  54  40 W7        30.19S
OAK RIDGE      CLEAR     81  53  37 SW6       30.21R
CROSSVILLE     CLEAR     75  55  49 S8        30.23S
NASHVILLE      MOCLDY    80  64  58 S12G24    30.10S
$$

...KEY TO REMARKS...
VSB - VISIBILITY IN MILES
WCI - WIND CHILL INDEX
HX  - HEAT INDEX

$$


USA.gov is the U.S. government's official web portal to all federal, state and local government web resources and services.